Tracking 23099 objects as of 13-May-2021
HD Live streaming from Space Station
objects crossing your sky now

NOAA 8

Track NOAA 8 now!
10-day predictions
NOAA 8 is classified as:


NORAD ID: 13923
Int'l Code: 1983-022A
Perigee: 792.9 km
Apogee: 813.3 km
Inclination: 98.7 °
Period: 100.8 minutes
Semi major axis: 7174 km
RCS: 5.054 m2 (large)
Launch date: March 28, 1983
Source: United States (US)
Launch site: AIR FORCE WESTERN TEST RANGE (AFWTR)
aabbcc
Your satellite tracking list
Your tracking list is empty




NASA's NSSDC Master Catalog

Two Line Element Set (TLE):
1 13923U 83022A   21132.71213684 -.00000005  00000-0  15620-4 0  9998
2 13923  98.6533 120.6521 0014210 304.9078  55.0768 14.28735073985441
Source of the keplerian elements: AFSPC